Reidsville, NC

7:07 PM EDT on April 30, 2017 (GMT -0400)
Reidsville

Weather History for KSIF - May, 2014

Change the Weather History Date:

Saturday, May 24, 2014

  Actual Average (KGSO) Record (KGSO)
Temperature  
Mean Temperature 63 °F -  
Max Temperature 78 °F 79 °F 93 °F (1915)
Min Temperature 48 °F 58 °F 38 °F (1931)
Degree Days  
Heating Degree Days 2    
Growing Degree Days 13 (Base 50)    
Moisture  
Dew Point 49 °F    
Average Humidity 63    
Maximum Humidity 96    
Minimum Humidity 33    
Precipitation  
Precipitation 0.00 in - - ()
Sea Level Pressure  
Sea Level Pressure 30.10 in    
Wind  
Wind Speed 2 mph (NNE)    
Max Wind Speed 6 mph    
Max Gust Speed -    
Visibility 10 miles    
Events      
Averages and records for this station are not official NWS values.
T = Trace of Precipitation, MM = Missing Value Source: NWS Daily Summary

Daily Weather History Graph

Daily Weather History Graph

Search for Another Location

Airport or City:

Trip Planner

Search our weather history database for the weather conditions in past years. The results will help you decide how hot, cold, wet, or windy it might be!

Date:

Astronomy

May. 24, 2014 Rise Set
Actual Time 6:06 AM EDT 8:26 PM EDT
Civil Twilight 5:37 AM EDT 8:55 PM EDT
Nautical Twilight 5:00 AM EDT 9:32 PM EDT
Astronomical Twilight 4:21 AM EDT 10:11 PM EDT
Moon 3:27 AM EDT (5/24) 4:28 PM EDT (5/24)
Length of Visible Light 15h 18m
Length of Day
14h 19m
Waning Crescent, 18% of the Moon is Illuminated
May 24
Waning Crescent
May 28
New
Jun 5
First Quarter
Jun 13
Full
Jun 19
Last Quarter

Hourly Weather History & Observations

Time (EDT) Temp. Dew Point Humidity Pressure Visibility Wind Dir Wind Speed Gust Speed Precip Events Conditions
12:15 AM 65.7 °F 46.4 °F 50% 30.06 in 10.0 mi NNW 4.6 mph - N/A   Clear
12:35 AM 63.9 °F 46.9 °F 54% 30.07 in 10.0 mi North 3.5 mph - N/A   Clear
12:55 AM 65.3 °F 46.4 °F 50% 30.06 in 10.0 mi Calm Calm - N/A   Clear
1:15 AM 59.2 °F 48.0 °F 66% 30.06 in 10.0 mi Calm Calm - N/A   Clear
1:35 AM 54.9 °F 47.8 °F 77% 30.06 in 10.0 mi Calm Calm - N/A   Clear
1:55 AM 55.9 °F 48.2 °F 75% 30.06 in 10.0 mi SSE 4.6 mph - N/A   Clear
2:15 AM 55.4 °F 47.8 °F 76% 30.06 in 10.0 mi Calm Calm - N/A   Clear
2:35 AM 53.1 °F 47.7 °F 82% 30.07 in 10.0 mi Calm Calm - N/A   Clear
2:55 AM 53.2 °F 47.3 °F 80% 30.07 in 10.0 mi Calm Calm - N/A   Clear
3:15 AM 50.9 °F 46.8 °F 86% 30.08 in 10.0 mi Calm Calm - N/A   Clear
3:35 AM 51.3 °F 47.8 °F 88% 30.08 in 10.0 mi Calm Calm - N/A   Clear
3:55 AM 52.9 °F 47.7 °F 82% 30.08 in 10.0 mi North 3.5 mph - N/A   Clear
4:15 AM 49.6 °F 46.9 °F 90% 30.09 in 10.0 mi Calm Calm - N/A   Clear
4:35 AM 49.5 °F 46.9 °F 91% 30.09 in 10.0 mi Calm Calm - N/A   Clear
4:55 AM 50.2 °F 46.4 °F 87% 30.09 in 10.0 mi Calm Calm - N/A   Clear
5:15 AM 49.5 °F 47.1 °F 92% 30.09 in 10.0 mi Calm Calm - N/A   Clear
5:35 AM 49.6 °F 46.2 °F 88% 30.09 in 10.0 mi Calm Calm - N/A   Clear
5:55 AM 48.2 °F 46.8 °F 95% 30.10 in 10.0 mi Calm Calm - N/A   Clear
6:15 AM 48.0 °F 46.0 °F 93% 30.10 in 10.0 mi Calm Calm - N/A   Clear
6:35 AM 49.6 °F 46.8 °F 90% 30.11 in 10.0 mi Calm Calm - N/A   Clear
6:55 AM 48.2 °F 46.4 °F 93% 30.13 in 10.0 mi Calm Calm - N/A   Clear
7:15 AM 49.6 °F 48.2 °F 95% 30.13 in 10.0 mi Calm Calm - N/A   Clear
7:35 AM 53.1 °F 50.7 °F 92% 30.14 in 10.0 mi Calm Calm - N/A   Clear
7:55 AM 56.7 °F 53.2 °F 88% 30.14 in 10.0 mi Calm Calm - N/A   Clear
8:15 AM 61.7 °F 50.5 °F 67% 30.14 in 10.0 mi Calm Calm - N/A   Clear
8:35 AM 63.0 °F 50.4 °F 63% 30.15 in 10.0 mi Calm Calm - N/A   Clear
8:55 AM 64.2 °F 48.9 °F 58% 30.15 in 10.0 mi North 3.5 mph - N/A   Clear
9:15 AM 65.3 °F 47.5 °F 52% 30.15 in 10.0 mi NNW 4.6 mph - N/A   Clear
9:55 AM 67.3 °F 47.5 °F 49% 30.15 in 10.0 mi Calm Calm - N/A   Clear
10:15 AM 68.5 °F 47.1 °F 46% 30.15 in 10.0 mi NNW 3.5 mph - N/A   Clear
10:35 AM 69.3 °F 46.4 °F 44% 30.15 in 10.0 mi North 4.6 mph - N/A   Clear
10:55 AM 70.2 °F 45.9 °F 42% 30.14 in 10.0 mi WNW 3.5 mph - N/A   Clear
11:20 AM 71.4 °F 46.2 °F 41% 30.14 in 10.0 mi Calm Calm - N/A   Clear
11:35 AM 72.0 °F 46.0 °F 40% 30.14 in 10.0 mi NNW 4.6 mph - N/A   Clear
11:55 AM 72.1 °F 43.7 °F 36% 30.14 in 10.0 mi North 3.5 mph - N/A   Clear
12:15 PM 73.0 °F 44.1 °F 35% 30.13 in 10.0 mi Calm Calm - N/A   Clear
12:35 PM 73.4 °F 43.7 °F 34% 30.12 in 10.0 mi NE 5.8 mph - N/A   Clear
12:55 PM 74.1 °F 45.1 °F 35% 30.12 in 10.0 mi Calm Calm - N/A   Clear
1:15 PM 74.5 °F 44.6 °F 34% 30.11 in 10.0 mi NE 3.5 mph - N/A   Clear
1:35 PM 75.7 °F 46.9 °F 36% 30.11 in 10.0 mi Calm Calm - N/A   Clear
2:15 PM 76.6 °F 45.9 °F 34% 30.09 in 10.0 mi NNW 4.6 mph - N/A   Clear
2:35 PM 76.5 °F 46.0 °F 34% 30.09 in 10.0 mi NNW 4.6 mph - N/A   Clear
2:55 PM 77.9 °F 46.6 °F 33% 30.09 in 10.0 mi South 4.6 mph - N/A   Clear
3:15 PM 77.4 °F 46.2 °F 33% 30.08 in 10.0 mi Calm Calm - N/A   Clear
3:35 PM 77.9 °F 47.3 °F 34% 30.08 in 10.0 mi North 3.5 mph - N/A   Clear
3:55 PM 78.1 °F 47.7 °F 34% 30.08 in 10.0 mi ENE 3.5 mph - N/A   Clear
4:15 PM 78.1 °F 46.9 °F 33% 30.07 in 10.0 mi NE 3.5 mph - N/A   Clear
4:35 PM 78.8 °F 47.8 °F 34% 30.07 in 10.0 mi SE 3.5 mph - N/A   Clear
4:55 PM 78.8 °F 48.7 °F 35% 30.07 in 10.0 mi NE 4.6 mph - N/A   Clear
5:15 PM 78.6 °F 48.6 °F 35% 30.07 in 10.0 mi Calm Calm - N/A   Clear
5:35 PM 78.3 °F 48.7 °F 35% 30.07 in 10.0 mi NE 3.5 mph - N/A   Clear
5:55 PM 78.1 °F 48.7 °F 36% 30.06 in 10.0 mi East 3.5 mph - N/A   Clear
6:15 PM 78.1 °F 49.3 °F 36% 30.06 in 10.0 mi Calm Calm - N/A   Clear
6:35 PM 77.9 °F 49.8 °F 37% 30.07 in 10.0 mi Calm Calm - N/A   Clear
6:55 PM 77.2 °F 50.7 °F 39% 30.07 in 10.0 mi Calm Calm - N/A   Clear
7:15 PM 75.9 °F 51.4 °F 42% 30.07 in 10.0 mi Calm Calm - N/A   Clear
7:35 PM 72.0 °F 55.9 °F 57% 30.08 in 10.0 mi Calm Calm - N/A   Clear
7:55 PM 66.4 °F 57.4 °F 73% 30.08 in 10.0 mi Calm Calm - N/A   Clear
8:15 PM 64.0 °F 57.9 °F 80% 30.09 in 10.0 mi Calm Calm - N/A   Clear
8:35 PM 61.5 °F 57.0 °F 85% 30.09 in 10.0 mi Calm Calm - N/A   Clear
8:55 PM 60.1 °F 56.5 °F 88% 30.10 in 10.0 mi Calm Calm - N/A   Clear
9:15 PM 58.3 °F 54.7 °F 88% 30.11 in 10.0 mi Calm Calm - N/A   Clear
9:35 PM 57.6 °F 54.5 °F 90% 30.11 in 10.0 mi Calm Calm - N/A   Clear
9:55 PM 56.1 °F 53.2 °F 90% 30.11 in 10.0 mi Calm Calm - N/A   Clear
10:15 PM 55.8 °F 53.1 °F 91% 30.12 in 10.0 mi Calm Calm - N/A   Clear
10:35 PM 54.9 °F 52.5 °F 92% 30.13 in 10.0 mi Calm Calm - N/A   Clear
11:15 PM 54.3 °F 52.3 °F 93% 30.14 in 10.0 mi Calm Calm - N/A   Clear
11:35 PM 54.0 °F 52.5 °F 95% 30.15 in 10.0 mi Calm Calm - N/A   Clear
11:55 PM 52.9 °F 51.8 °F 96% 30.15 in 10.0 mi Calm Calm - N/A   Clear